Regional Weather Roundup
Issued by NWS

Home | Current Version | Previous Version | Graphics & Text | Print | Product List | Glossary On
Versions: 1 2 3 4 5 6 7 8 9 10 11 12 13 14 15 16 17 18 19 20 21 22 23 24 25 26 27 28 29 30 31 32 33 34 35 36 37 38 39 40 41 42 43 44 45 46 47 48 49 50
000
ASUS43 KLOT 182006
RWRIL

ILLINOIS REGIONAL WEATHER ROUNDUP
NATIONAL WEATHER SERVICE CHICAGO/ROMEOVILLE IL
200 PM CST THU DEC 18 2014

NOTE: "FAIR" INDICATES FEW OR NO CLOUDS BELOW 12,000 FEET WITH NO
SIGNIFICANT WEATHER AND/OR OBSTRUCTIONS TO VISIBILITY.

* THESE STATIONS ARE NOT UNDER NWS QUALITY CONTROL. THEY ALSO MAY NOT
  REPORT WEATHER SUCH AS PRECIPITATION OR FOG.

ILZ001-002-007-009-015-016-024-182100-
NORTHWEST ILLINOIS

CITY           SKY/WX    TMP DP  RH WIND       PRES   REMARKS
MOLINE         PTSUNNY   30  17  58 NW5       30.24F WCI  25
STERLING*      PTSUNNY   28  18  64 NW5       30.25F WCI  23
SAVANNA*       MOSUNNY   25  19  77 CALM      30.26S
$$

ILZ003-004-008-010-011-017-018-182100-
NORTH CENTRAL ILLINOIS

CITY           SKY/WX    TMP DP  RH WIND       PRES   REMARKS
ROCKFORD       CLOUDY    27  16  63 N5        30.25F WCI  22
FREEPORT*      MOSUNNY   25  17  72 CALM      30.25F
ROCHELLE*      CLOUDY    25  18  75 CALM      30.24F
DE KALB*       CLOUDY    24  17  74 CALM      30.23S
PERU*          CLOUDY    27  20  76 N6        30.25F WCI  21
$$

ILZ005-006-012>014-019>023-182100-
NORTHEAST ILLINOIS

CITY           SKY/WX    TMP DP  RH WIND       PRES   REMARKS
CHICAGO-OHARE  CLOUDY    28  18  66 NW3       30.21F
CHICAGO-MIDWAY CLOUDY    29  18  63 SW8       30.23F WCI  21
AURORA         PTSUNNY   27  17  66 W3        30.23F
LANSING*       CLOUDY    27  19  72 W5        30.24S WCI  21
JOLIET*        CLOUDY    26  18  69 W5        30.24F WCI  21
WAUKEGAN       CLOUDY    28  19  69 VRB6      30.21F WCI  22
DUPAGE AIRPORT CLOUDY    28  17  63 CALM      30.21F
KANKAKEE*      CLOUDY    28  21  77 W5        30.24F WCI  22
WHEELING       CLOUDY    27  18  69 NW5       30.24F WCI  22
MORRIS*        CLOUDY    27  20  76 W6        30.24S WCI  20
ROMEOVILLE*    CLOUDY    26  17  71 N3        30.24S
NORTHERLY ISL    N/A     28  17  63 SW3         N/A
$$

LMZ740>746-182100-
SOUTHERN LAKE MICHIGAN

STATION/POSITION SKY/WX   TEMP    WIND        PRES    VSBY  WAVE
                          AIR SEA DIR/SP/G                  HT/PER
                          (F)     (DEG/KT/KT) (MB)    (MI)  (FT/S)
WAUKEGAN HARBOR            27      CALM  /  7   N/A
HARRISON CRIB              27     310/  5/  6   N/A
BURNHAM HARBOR             28     230/  4/  7   N/A
CALUMET HARBOR             26     190/  5/  7 1022.4F
$$

ILZ025>027-034>036-040-047-049-050-058-095>099-182100-
WEST-CENTRAL ILLINOIS

CITY           SKY/WX    TMP DP  RH WIND       PRES   REMARKS
QUINCY         CLOUDY    29  24  82 NE5       30.23F WCI  24
GALESBURG*     MOSUNNY   27  20  73 N3        30.24S
MACOMB*        CLOUDY    27  21  79 CALM      30.27F
JACKSONVILLE*  RAIN      31  26  81 CALM      30.24F
PITTSFIELD*    LGT RAIN  30  26  84 CALM      30.24F
$$

ILZ028>032-037-038-041>044-048-051>054-059>061-182100-
CENTRAL ILLINOIS

CITY           SKY/WX    TMP DP  RH WIND       PRES   REMARKS
PONTIAC        PTSUNNY   28  22  79 NW5       30.24F WCI  22
BLOOMINGTON    PTSUNNY   28  21  74 NW5       30.23F WCI  23
DECATUR        CLOUDY    29  23  78 S3        30.24F HAZE
PEORIA         CLOUDY    29  19  66 NW3       30.25F
LACON*         MOSUNNY   28  19  68 CALM      30.25S
LINCOLN*       CLOUDY    30  24  79 CALM      30.26S
SPRINGFIELD    CLOUDY    31  24  75 NW3       30.24F
TAYLORVILLE    CLOUDY    30  23  74 CALM      30.23F
$$

ILZ033-039-045-046-055>057-062-063-182100-
EAST-CENTRAL ILLINOIS

CITY           SKY/WX    TMP DP  RH WIND       PRES   REMARKS
CHAMPAIGN      CLOUDY    28  21  75 W5        30.24R WCI  23
DANVILLE*      CLOUDY    27  22  82 CALM      30.21R
RANTOUL*       CLOUDY    29  24  81 NW3       30.23F
MATTOON        CLOUDY    30  21  69 NW6       30.22F WCI  24
PARIS*         CLOUDY    29  23  78 CALM      30.24S
$$

ILZ079-100>102-182100-
SOUTHWEST ILLINOIS

CITY           SKY/WX    TMP DP  RH WIND       PRES   REMARKS
ALTON          CLOUDY    34  23  64 NE6       30.24F WCI  29
BELLEVILLE     CLOUDY    35  29  79 N2        30.23F
CAHOKIA*       CLOUDY    35  29  78 CALM      30.23F
SPARTA*        LGT SNOW  32  30  94 CALM      30.24F
$$

ILZ064>066-069>071-074>076-080>082-084>086-088>090-092>094-182100-
SOUTH-CENTRAL ILLINOIS

CITY           SKY/WX    TMP DP  RH WIND       PRES   REMARKS
CARBONDALE     CLOUDY    34  30  85 CALM      30.23F
CAIRO*         CLOUDY    37  34  88 NE7       30.23F WCI  32
EFFINGHAM*     CLOUDY    32  22  65 CALM      30.25F
MARION         CLOUDY    36  32  87 NE5       30.24F WCI  32
MT. VERNON     CLOUDY    34  23  64 CALM      30.23F
CENTRALIA*     CLOUDY    33  23  67 CALM      30.23F
SALEM*         CLOUDY    33  26  75 N3        30.23F
METROPOLIS*    CLOUDY    35  35  97 CALM      30.22F
$$

ILZ067-068-072-073-078-083-087-091-182100-
SOUTHEAST ILLINOIS

CITY           SKY/WX    TMP DP  RH WIND       PRES   REMARKS
LAWRENCEVILLE  CLOUDY    31  23  72 CALM      30.25F
FLORA*         MOSUNNY   31  25  77 CALM      30.25S
FAIRFIELD*     CLOUDY    32  24  71 CALM      30.23F
HARRISBURG*    CLOUDY    34  29  82 N3        30.25F
ROBINSON*      CLOUDY    31  24  74 NE3       30.25F
CARMI*         CLOUDY    35  29  78 N5        30.23F WCI  31
$$

ABBREVIATIONS USED IN REMARKS
   TC - TEMPERATURE IN CELSIUS
  WCI - WIND CHILL INDEX
   HX - HEAT INDEX
  VSB - VISIBILITY
$$



USA.gov is the U.S. government's official web portal to all federal, state and local government web resources and services.